STARLINK-6333, 56521

Orbit data source: Space-Track

STARLINK-6333, 56521 is a payload satellite owned by SpaceX/Seattle (US) in LEO that was launched on Sun, 14 May 2023 UTC via an FALCON 9 launch vehicle from the Air Force Eastern Test Range (AFETR). Payload-class satellites include a variety of spacecraft equipped with specific instruments for various scientific and technological missions. These include communications satellites like Starlink; space stations such as the ISS; scientific satellites like the Hubble; Earth observation satellites from companies like Planet Labs, Umbra, and HawkEye 360; GPS; miniature CubeSats for education and research; and military/defense satellites.

Loading next visibility...
Identifier
56521, 2023-065U
Orbit
LEO
Country
Flag of USUS
Related business
Manufacturer
SpaceX/Seattle
Mission
Operational Commercial Communications
Bus & Motor
STARLINK, Unknown motor
Mass
305 kg wet, ~290 kg dry
Launch date (UTC)
2023-05-14 (3 years ago)
Launch vehicle
FALCON 9
Launch site
Air Force Eastern Test Range (AFETR)
Object type
Payload
Rocket body
Debris
Shape & HBR
Box + 1 Pan, 10.1 m
Radar Cross Section
11.087 m², Large (>1 m²)

Expand to show TLE details & history
Last TLE update: 3 days ago

TLE from 3 days ago
0 STARLINK-6333
1 56521U 23065U   26170.60342204  .00016905  00000-0  62366-3 0  9999
2 56521  43.0039   0.5286 0001485 236.5544 123.5165 15.27514646172147
Epoch: 2026-06-19T14:28Z
TLE epoch observation values (Epoch: 2026-06-19T14:28:55.664Z)
Latitude
-0.00006°
Longitude
-124.53343°
Altitude
483.583 km
Speed
7.625 km/s
True Right ascension
00h 02m 06s
True Declination
0° 00' 00"
Sunlit
Object was in daylight at epoch
Visualization orbit readout
Latitude
Unknown
Longitude
Unknown
Altitude
Unknown
Speed
Unknown
Apparent Right ascension
Unknown
Apparent Declination
Unknown
Sunlit
N/A
Visualization observer readout
Local Sidereal Time
21:29:34
Azimuth
Unknown
Elevation
Unknown
Doppler factor
Unknown
Orbital elements
Apogee altitude
486.208 km
Perigee altitude
484.17 km
Semi-major axis
6,863.326 km
Eccentricity
0.00015
Inclination
43.0039°
RAAN
0.5286°
Arg. of periapsis
236.5544°
True anomaly
123.53069°
Mean anomaly
123.5165°
Eccentric anomaly
123.52359°
Mean motion
3.81717 °/min
Orbital period
94.31 mins
BSTAR
0.00062366
Loading maneuver chart data...
Computing Atmospheric mass density...
Loading historical data...
Loading historical data...
Loading historical data...
Loading historical data...
Loading historical data...
Loading historical data...
Loading historical data...

Documentation

Showing up to 5 results
|